Flag for United Kingdom Weather past 2 weeks in Blackpool, England, United Kingdom

Now
54 °F

Partly cloudy.


Feels Like: 52 °F
Forecast: 54 / 60 °F
Wind: 6 mph from East

Location: Blackpool Airport

Current Time: Sep 2, 2015 at 7:58:20 AM

Latest Report: Sep 2, 2015 at 6:50 AM


Visibility: N/A

Pressure: 30.07 "Hg

Humidity: 82%

Dew point: 48 °F

Location of BlackpoolLocation

Historic Weather in Blackpool — Graph

°F

Blackpool temperature yesterday

Maximum temperature yesterday: 63 °F (at 12:20 PM)
Minimum temperature yesterday: 54 °F (at 6:20 AM)
Average temperature yesterday: 60 °F

Past Weeks' High & Low Weather Summary

 TemperatureHumidityPressure
High77 °F (Aug 23, 2:20 PM)100% (Aug 24, 6:20 AM)30.12 "Hg (Aug 24, 6:20 AM)
Low48 °F (Aug 24, 6:20 AM)47% (Aug 23, 2:20 PM)29.42 "Hg (Aug 26, 6:20 AM)
Average62 °F76%29.84 "Hg
* Reported Aug 18 6:20 AM — Sep 2 6:20 AM, Blackpool, Weather by CustomWeather, © 2015

Note: Actual official high and low records may vary slightly from our data, if they occured in-between our weather recording intervals... More about our weather records

Advertising

Blackpool weather history for previous 24 hours

 ConditionsComfort  
Time TempWeatherWind HumidityBarometerVisibility
6:20 AM
Wed, Sep 2
54 °FPassing clouds.6 mph88%30.07 "HgN/A
8:50 PM
Tue, Sep 1
59 °FPassing clouds.12 mph77%30.09 "HgN/A
7:50 PM59 °FPassing clouds.12 mph77%30.09 "HgN/A
7:20 PM59 °FScattered clouds.13 mph72%30.09 "HgN/A
6:50 PM59 °FPassing clouds.13 mph72%30.09 "HgN/A
6:20 PM61 °FPassing clouds.14 mph68%30.09 "HgN/A
5:50 PM59 °FScattered clouds.13 mph72%30.09 "HgN/A
5:20 PM59 °FPassing clouds.14 mph72%30.09 "HgN/A
4:50 PM61 °FPassing clouds.15 mph68%30.09 "HgN/A
4:20 PM61 °FPassing clouds.14 mph68%30.09 "HgN/A
3:50 PM61 °FPassing clouds.15 mph72%30.09 "HgN/A
3:20 PM63 °FPassing clouds.15 mph68%30.09 "HgN/A
2:50 PM61 °FPassing clouds.16 mph68%30.09 "HgN/A
2:20 PM61 °FPassing clouds.17 mph68%30.09 "HgN/A
1:50 PM61 °FScattered clouds.15 mph68%30.09 "HgN/A
1:20 PM63 °FScattered clouds.15 mph68%30.09 "HgN/A
12:50 PM61 °FScattered clouds.15 mph68%30.09 "HgN/A
12:20 PM63 °FScattered clouds.14 mph68%30.09 "HgN/A
11:50 AM61 °FScattered clouds.13 mph72%30.09 "HgN/A
11:20 AM61 °FScattered showers. Scattered clouds.15 mph77%30.09 "HgN/A
10:50 AM59 °FScattered showers. Broken clouds.13 mph77%30.09 "HgN/A
10:20 AM61 °FScattered showers. Scattered clouds.10 mph72%30.09 "HgN/A
9:50 AM59 °FScattered showers. Scattered clouds.7 mph77%30.09 "HgN/A
9:20 AM59 °FScattered showers. Scattered clouds.5 mph77%30.09 "HgN/A
8:20 AM55 °FScattered clouds.2 mph82%30.09 "HgN/A
7:50 AM55 °FScattered clouds.No wind82%30.09 "HgN/A
7:20 AM55 °FPassing clouds.No wind82%30.07 "HgN/A
Weather by CustomWeather, © 2015

See weather overviewHow to use our weather pages